When you browse on this site, cookies collect data to enhance your experience and personalize the content and advertising you see.
Visit our Privacy Policy to learn more. By continuing to use the site, you agree to this use of cookies and data.
  • In Hungary
  • List of Countries
  • For 7 days
  • Water Temperature
  • Satellite Maps
  • Weather Map
  • News
  • Weather Widgets
  • user-avatar
    Login

    Hourly Weather Lawndale

    Today, 17 February, Sunday

    Time Temperature Precipitation Wind Pressure Humidity
    00:00 +11°C° 0 mm 7 mps 763 mmHg 54%
    01:00 +11°C° 0 mm 7 mps 763 mmHg 53%
    02:00 +11°C° 0 mm 7 mps 762 mmHg 53%
    03:00 +10°C° 0 mm 6 mps 762 mmHg 52%
    04:00 +10°C° 0 mm 6 mps 762 mmHg 52%
    05:00 +10°C° 0 mm 5 mps 762 mmHg 52%
    06:00 +10°C° 0 mm 5 mps 762 mmHg 51%
    07:00 +11°C° 0 mm 4 mps 762 mmHg 51%
    08:00 +11°C° 0 mm 4 mps 762 mmHg 47%
    09:00 +12°C° 0 mm 5 mps 762 mmHg 43%
    10:00 +13°C° 0 mm 5 mps 762 mmHg 40%
    11:00 +13°C° 0.1 mm 6 mps 761 mmHg 44%
    12:00 +14°C° 0.1 mm 7 mps 761 mmHg 49%
    13:00 +13°C° 0.1 mm 8 mps 760 mmHg 53%
    14:00 +13°C° 0 mm 9 mps 760 mmHg 51%
    15:00 +13°C° 0 mm 10 mps 759 mmHg 49%
    16:00 +13°C° 0 mm 11 mps 758 mmHg 47%
    17:00 +12°C° 0 mm 11 mps 759 mmHg 47%
    18:00 +12°C° 0 mm 11 mps 759 mmHg 47%
    19:00 +11°C° 0 mm 11 mps 759 mmHg 48%
    20:00 +11°C° 0 mm 10 mps 759 mmHg 48%
    21:00 +11°C° 0 mm 9 mps 760 mmHg 48%
    22:00 +10°C° 0 mm 8 mps 760 mmHg 49%
    23:00 +10°C° 0 mm 7 mps 760 mmHg 49%

    Tomorrow, 18 February, Monday

    Time Temperature Precipitation Wind Pressure Humidity
    00:00 +10°C° 0 mm 6 mps 760 mmHg 49%
    01:00 +10°C° 0 mm 6 mps 760 mmHg 49%
    02:00 +9°C° 0 mm 5 mps 760 mmHg 48%
    03:00 +9°C° 0 mm 5 mps 760 mmHg 47%
    04:00 +10°C° 0 mm 4 mps 760 mmHg 46%
    05:00 +8°C° 0 mm 4 mps 760 mmHg 45%
    06:00 +8°C° 0 mm 4 mps 761 mmHg 44%
    07:00 +8°C° 0 mm 4 mps 761 mmHg 44%
    08:00 +10°C° 0 mm 4 mps 761 mmHg 39%
    09:00 +11°C° 0 mm 3 mps 762 mmHg 35%
    10:00 +12°C° 0 mm 3 mps 762 mmHg 31%
    11:00 +13°C° 0 mm 3 mps 762 mmHg 26%
    12:00 +14°C° 0 mm 3 mps 761 mmHg 22%
    13:00 +16°C° 0 mm 2 mps 761 mmHg 17%
    14:00 +16°C° 0 mm 3 mps 761 mmHg 19%
    15:00 +15°C° 0 mm 4 mps 761 mmHg 21%
    16:00 +15°C° 0 mm 5 mps 761 mmHg 23%
    17:00 +15°C° 0 mm 5 mps 761 mmHg 25%
    18:00 +14°C° 0 mm 5 mps 761 mmHg 27%
    19:00 +14°C° 0 mm 5 mps 762 mmHg 29%
    20:00 +13°C° 0 mm 5 mps 762 mmHg 27%
    21:00 +12°C° 0 mm 4 mps 762 mmHg 25%
    22:00 +11°C° 0 mm 4 mps 762 mmHg 23%
    23:00 +11°C° 0 mm 4 mps 762 mmHg 25%

    Day after tomorrow, 19 February, Tuesday

    Time Temperature Precipitation Wind Pressure Humidity
    00:00 +10°C° 0 mm 3 mps 762 mmHg 26%
    01:00 +10°C° 0 mm 3 mps 762 mmHg 27%
    02:00 +10°C° 0 mm 2 mps 762 mmHg 27%
    03:00 +10°C° 0 mm 2 mps 762 mmHg 27%
    04:00 +9°C° 0 mm 2 mps 762 mmHg 27%
    05:00 +9°C° 0 mm 2 mps 762 mmHg 27%
    06:00 +9°C° 0 mm 2 mps 763 mmHg 27%
    07:00 +9°C° 0 mm 2 mps 763 mmHg 27%
    08:00 +10°C° 0 mm 2 mps 763 mmHg 25%
    09:00 +13°C° 0 mm 2 mps 763 mmHg 22%
    10:00 +14°C° 0 mm 2 mps 763 mmHg 20%
    11:00 +14°C° 0 mm 2 mps 763 mmHg 20%
    12:00 +15°C° 0 mm 2 mps 763 mmHg 20%
    13:00 +16°C° 0 mm 2 mps 763 mmHg 20%
    14:00 +16°C° 0 mm 2 mps 762 mmHg 22%
    15:00 +16°C° 0 mm 2 mps 762 mmHg 23%
    16:00 +16°C° 0 mm 2 mps 762 mmHg 25%
    17:00 +15°C° 0 mm 2 mps 762 mmHg 28%
    18:00 +15°C° 0 mm 2 mps 762 mmHg 31%
    19:00 +13°C° 0 mm 3 mps 762 mmHg 35%
    20:00 +14°C° 0 mm 2 mps 762 mmHg 35%
    21:00 +14°C° 0 mm 2 mps 762 mmHg 35%
    22:00 +13°C° 0 mm 1 mps 763 mmHg 35%
    23:00 +13°C° 0 mm 1 mps 762 mmHg 35%

    20 February, Wednesday

    Time Temperature Precipitation Wind Pressure Humidity
    00:00 +13°C° 0 mm 1 mps 762 mmHg 35%
    01:00 +12°C° 0 mm 1 mps 761 mmHg 34%
    02:00 +12°C° 0 mm 1 mps 761 mmHg 34%
    03:00 +12°C° 0 mm 1 mps 760 mmHg 34%
    04:00 +12°C° 0 mm 2 mps 760 mmHg 34%
    05:00 +12°C° 0 mm 2 mps 760 mmHg 37%
    06:00 +10°C° 0 mm 2 mps 760 mmHg 39%
    07:00 +10°C° 0 mm 2 mps 760 mmHg 42%
    08:00 +12°C° 0 mm 2 mps 759 mmHg 42%
    09:00 +13°C° 0 mm 2 mps 759 mmHg 42%
    10:00 +14°C° 0 mm 2 mps 759 mmHg 43%
    11:00 +14°C° 0 mm 2 mps 758 mmHg 42%
    12:00 +15°C° 0 mm 2 mps 757 mmHg 41%
    13:00 +14°C° 0 mm 3 mps 756 mmHg 40%
    14:00 +14°C° 0 mm 3 mps 756 mmHg 41%
    15:00 +14°C° 0 mm 3 mps 755 mmHg 42%
    16:00 +14°C° 0 mm 3 mps 754 mmHg 43%
    17:00 +13°C° 0 mm 3 mps 754 mmHg 45%
    18:00 +14°C° 0 mm 2 mps 754 mmHg 46%
    19:00 +13°C° 0 mm 2 mps 754 mmHg 47%
    20:00 +13°C° 0 mm 2 mps 754 mmHg 49%
    21:00 +13°C° 0 mm 2 mps 754 mmHg 50%
    22:00 +13°C° 0 mm 2 mps 754 mmHg 52%
    23:00 +11°C° 0 mm 3 mps 753 mmHg 54%

    21 February, Thursday

    Time Temperature Precipitation Wind Pressure Humidity
    00:00 +11°C° 0 mm 3 mps 753 mmHg 57%
    01:00 +11°C° 0 mm 4 mps 752 mmHg 59%
    02:00 +9°C° 0 mm 5 mps 752 mmHg 58%
    03:00 +9°C° 0 mm 6 mps 751 mmHg 58%
    04:00 +9°C° 0 mm 6 mps 751 mmHg 57%
    05:00 +9°C° 0 mm 6 mps 751 mmHg 56%
    06:00 +9°C° 0 mm 6 mps 751 mmHg 55%
    07:00 +9°C° 0 mm 5 mps 751 mmHg 54%
    08:00 +10°C° 0 mm 5 mps 751 mmHg 50%
    09:00 +11°C° 0 mm 4 mps 752 mmHg 45%
    10:00 +12°C° 0 mm 4 mps 752 mmHg 40%
    11:00 +13°C° 0 mm 4 mps 752 mmHg 37%
    12:00 +13°C° 0 mm 5 mps 751 mmHg 33%
    13:00 +14°C° 0 mm 5 mps 751 mmHg 30%
    14:00 +14°C° 0 mm 6 mps 751 mmHg 29%
    15:00 +14°C° 0 mm 6 mps 751 mmHg 29%
    16:00 +14°C° 0 mm 6 mps 751 mmHg 29%
    17:00 +13°C° 0 mm 6 mps 752 mmHg 28%
    18:00 +13°C° 0 mm 5 mps 752 mmHg 27%
    19:00 +13°C° 0 mm 5 mps 753 mmHg 27%
    20:00 +12°C° 0 mm 4 mps 753 mmHg 27%
    21:00 +11°C° 0 mm 4 mps 754 mmHg 28%
    22:00 +11°C° 0 mm 4 mps 754 mmHg 29%
    23:00 +10°C° 0 mm 4 mps 755 mmHg 31%

    22 February, Friday

    Time Temperature Precipitation Wind Pressure Humidity
    00:00 +10°C° 0 mm 3 mps 755 mmHg 33%
    01:00 +9°C° 0 mm 3 mps 755 mmHg 35%
    02:00 +9°C° 0 mm 3 mps 756 mmHg 35%
    03:00 +9°C° 0 mm 2 mps 756 mmHg 36%
    04:00 +9°C° 0 mm 2 mps 757 mmHg 37%
    05:00 +9°C° 0 mm 2 mps 757 mmHg 37%
    06:00 +9°C° 0 mm 2 mps 758 mmHg 36%
    07:00 +9°C° 0 mm 3 mps 759 mmHg 35%
    08:00 +10°C° 0 mm 3 mps 759 mmHg 31%
    09:00 +11°C° 0 mm 3 mps 760 mmHg 26%
    10:00 +12°C° 0 mm 3 mps 760 mmHg 21%
    11:00 +13°C° 0 mm 3 mps 760 mmHg 20%
    12:00 +14°C° 0 mm 3 mps 760 mmHg 19%
    13:00 +16°C° 0 mm 3 mps 760 mmHg 18%
    14:00 +17°C° 0 mm 3 mps 761 mmHg 18%
    15:00 +17°C° 0 mm 4 mps 761 mmHg 19%
    16:00 +17°C° 0 mm 4 mps 761 mmHg 20%
    17:00 +16°C° 0 mm 5 mps 761 mmHg 23%
    18:00 +15°C° 0 mm 5 mps 762 mmHg 25%
    19:00 +14°C° 0 mm 5 mps 762 mmHg 28%
    20:00 +14°C° 0 mm 4 mps 763 mmHg 29%
    21:00 +13°C° 0 mm 4 mps 763 mmHg 30%
    22:00 +13°C° 0 mm 3 mps 764 mmHg 31%
    23:00 +12°C° 0 mm 3 mps 764 mmHg 30%
    Show more